Time,TemperatureF,DewpointF,PressureIn,WindDirection,WindDirectionDegrees,WindSpeedMPH,WindSpeedGustMPH,Humidity,HourlyPrecipIn,Conditions,Clouds,dailyrainin,SoftwareType,DateUTC
2013-07-13 00:04:00,78.6,52.0,27.25,WSW,247,2.3,2.8,39,0.00,,,0.00,Rainwise IP-100,2013-07-13 07:04:00,
2013-07-13 00:09:00,78.4,52.0,27.25,WSW,247,1.9,3.0,40,0.00,,,0.00,Rainwise IP-100,2013-07-13 07:09:00,
2013-07-13 00:14:00,78.3,52.0,27.25,WSW,247,1.4,2.1,40,0.00,,,0.00,Rainwise IP-100,2013-07-13 07:14:00,
2013-07-13 00:19:00,78.5,53.0,27.25,WSW,247,0.0,1.6,40,0.00,,,0.00,Rainwise IP-100,2013-07-13 07:19:00,
2013-07-13 00:24:00,78.6,53.0,27.25,WSW,247,0.0,1.2,40,0.00,,,0.00,Rainwise IP-100,2013-07-13 07:24:00,
2013-07-13 00:29:00,78.2,52.0,27.25,WSW,247,0.0,0.0,40,0.00,,,0.00,Rainwise IP-100,2013-07-13 07:29:00,
2013-07-13 00:34:00,77.3,51.0,27.25,SSW,202,0.0,2.6,40,0.00,,,0.00,Rainwise IP-100,2013-07-13 07:34:00,
2013-07-13 00:39:00,76.6,50.5,27.25,SSW,202,0.0,1.4,40,0.00,,,0.00,Rainwise IP-100,2013-07-13 07:39:00,
2013-07-13 00:44:00,76.5,51.0,27.25,SSW,202,1.4,1.6,41,0.00,,,0.00,Rainwise IP-100,2013-07-13 07:44:00,
2013-07-13 00:49:00,76.5,51.0,27.25,SSW,202,0.0,1.6,41,0.00,,,0.00,Rainwise IP-100,2013-07-13 07:49:00,
2013-07-13 00:55:00,76.5,51.0,27.24,SSW,202,0.0,0.0,41,0.00,,,0.00,Rainwise IP-100,2013-07-13 07:55:00,
2013-07-13 01:00:00,76.3,50.5,27.25,SSW,202,0.0,0.0,41,0.00,,,0.00,Rainwise IP-100,2013-07-13 08:00:00,
2013-07-13 01:05:00,75.7,50.0,27.25,SSW,202,1.2,1.6,41,0.00,,,0.00,Rainwise IP-100,2013-07-13 08:05:00,
2013-07-13 01:10:00,75.2,50.5,27.25,SSW,202,0.0,1.4,42,0.00,,,0.00,Rainwise IP-100,2013-07-13 08:10:00,
2013-07-13 01:15:00,75.0,50.5,27.25,SSW,202,0.0,0.0,42,0.00,,,0.00,Rainwise IP-100,2013-07-13 08:15:00,
2013-07-13 01:20:00,75.3,51.0,27.25,SSW,202,0.0,0.0,43,0.00,,,0.00,Rainwise IP-100,2013-07-13 08:20:00,
2013-07-13 01:25:00,75.5,51.0,27.25,SSW,202,0.0,0.0,43,0.00,,,0.00,Rainwise IP-100,2013-07-13 08:25:00,
2013-07-13 01:30:00,75.7,50.5,27.25,SSW,202,0.0,0.0,42,0.00,,,0.00,Rainwise IP-100,2013-07-13 08:30:00,
2013-07-13 01:35:00,75.9,51.0,27.25,SSW,202,0.0,0.0,42,0.00,,,0.00,Rainwise IP-100,2013-07-13 08:35:00,
2013-07-13 01:40:00,76.1,51.0,27.25,SSW,202,2.3,2.3,42,0.00,,,0.00,Rainwise IP-100,2013-07-13 08:40:00,
2013-07-13 01:45:00,75.7,50.5,27.25,SSW,202,0.0,2.6,42,0.00,,,0.00,Rainwise IP-100,2013-07-13 08:45:00,
2013-07-13 01:50:00,75.4,50.5,27.25,SSW,202,2.3,3.5,42,0.00,,,0.00,Rainwise IP-100,2013-07-13 08:50:00,
2013-07-13 01:55:00,75.4,50.5,27.25,WSW,247,2.1,3.3,42,0.00,,,0.00,Rainwise IP-100,2013-07-13 08:55:00,
2013-07-13 02:00:00,75.6,50.0,27.25,WSW,247,0.0,2.3,41,0.00,,,0.00,Rainwise IP-100,2013-07-13 09:00:00,
2013-07-13 02:06:00,75.4,50.0,27.25,WSW,247,0.0,0.0,41,0.00,,,0.00,Rainwise IP-100,2013-07-13 09:06:00,
2013-07-13 02:11:00,75.1,50.5,27.25,WSW,247,0.0,0.0,42,0.00,,,0.00,Rainwise IP-100,2013-07-13 09:11:00,
2013-07-13 02:16:00,75.1,50.5,27.25,WSW,247,0.0,0.0,42,0.00,,,0.00,Rainwise IP-100,2013-07-13 09:16:00,
2013-07-13 02:21:00,75.1,50.5,27.24,WSW,247,0.0,0.0,42,0.00,,,0.00,Rainwise IP-100,2013-07-13 09:21:00,
2013-07-13 02:26:00,74.8,50.5,27.24,WSW,247,0.0,0.0,42,0.00,,,0.00,Rainwise IP-100,2013-07-13 09:26:00,
2013-07-13 02:31:00,74.3,50.5,27.25,WSW,247,0.0,0.0,43,0.00,,,0.00,Rainwise IP-100,2013-07-13 09:31:00,
2013-07-13 02:36:00,73.9,50.5,27.24,WSW,247,0.0,1.4,43,0.00,,,0.00,Rainwise IP-100,2013-07-13 09:36:00,
2013-07-13 02:41:00,74.0,50.5,27.24,WSW,247,0.0,1.4,43,0.00,,,0.00,Rainwise IP-100,2013-07-13 09:41:00,
2013-07-13 02:46:00,74.4,50.5,27.24,WSW,247,0.0,0.0,43,0.00,,,0.00,Rainwise IP-100,2013-07-13 09:46:00,
2013-07-13 02:51:00,74.7,50.5,27.24,WSW,247,1.4,1.9,42,0.00,,,0.00,Rainwise IP-100,2013-07-13 09:51:00,
2013-07-13 02:56:00,74.9,50.5,27.24,WSW,247,0.0,1.6,42,0.00,,,0.00,Rainwise IP-100,2013-07-13 09:56:00,
2013-07-13 03:01:00,75.0,50.5,27.24,WSW,247,0.0,0.0,42,0.00,,,0.00,Rainwise IP-100,2013-07-13 10:01:00,
2013-07-13 03:06:00,74.7,50.5,27.24,WSW,247,0.0,0.0,42,0.00,,,0.00,Rainwise IP-100,2013-07-13 10:06:00,
2013-07-13 03:11:00,74.4,50.0,27.24,WSW,247,0.0,0.0,42,0.00,,,0.00,Rainwise IP-100,2013-07-13 10:11:00,
2013-07-13 03:17:00,74.6,50.5,27.24,WSW,247,0.0,0.0,42,0.00,,,0.00,Rainwise IP-100,2013-07-13 10:17:00,
2013-07-13 03:22:00,74.7,50.5,27.24,WSW,247,1.2,1.6,42,0.00,,,0.00,Rainwise IP-100,2013-07-13 10:22:00,
2013-07-13 03:27:00,74.5,50.5,27.24,WSW,247,1.6,1.6,42,0.00,,,0.00,Rainwise IP-100,2013-07-13 10:27:00,
2013-07-13 03:32:00,74.5,50.5,27.25,WSW,247,0.0,2.1,42,0.00,,,0.00,Rainwise IP-100,2013-07-13 10:32:00,
2013-07-13 03:37:00,74.5,50.5,27.24,WSW,247,1.2,2.1,42,0.00,,,0.00,Rainwise IP-100,2013-07-13 10:37:00,
2013-07-13 03:40:00,74.6,50.5,27.24,WSW,247,0.0,1.9,42,0.00,,,0.00,Rainwise IP-100,2013-07-13 10:40:00,
2013-07-13 03:45:00,74.6,50.5,27.24,WSW,247,0.0,0.0,42,0.00,,,0.00,Rainwise IP-100,2013-07-13 10:45:00,
2013-07-13 03:50:00,74.3,50.0,27.25,WSW,247,0.0,0.0,42,0.00,,,0.00,Rainwise IP-100,2013-07-13 10:50:00,
2013-07-13 03:55:00,73.8,49.0,27.25,WSW,247,1.6,1.6,42,0.00,,,0.00,Rainwise IP-100,2013-07-13 10:55:00,
2013-07-13 04:00:00,73.7,50.0,27.25,WSW,247,1.2,1.9,43,0.00,,,0.00,Rainwise IP-100,2013-07-13 11:00:00,
2013-07-13 04:05:00,73.6,50.0,27.25,WSW,247,0.0,1.4,43,0.00,,,0.00,Rainwise IP-100,2013-07-13 11:05:00,
2013-07-13 04:10:00,73.7,50.0,27.24,WSW,247,1.9,1.9,43,0.00,,,0.00,Rainwise IP-100,2013-07-13 11:10:00,
2013-07-13 04:15:00,74.0,50.0,27.25,WSW,247,1.4,2.6,42,0.00,,,0.00,Rainwise IP-100,2013-07-13 11:15:00,
2013-07-13 04:20:00,74.5,50.5,27.25,WSW,247,0.0,2.1,42,0.00,,,0.00,Rainwise IP-100,2013-07-13 11:20:00,
2013-07-13 04:25:00,74.9,50.0,27.25,WNW,292,1.4,2.1,41,0.00,,,0.00,Rainwise IP-100,2013-07-13 11:25:00,
2013-07-13 04:30:00,75.1,50.0,27.25,WNW,292,0.0,1.6,41,0.00,,,0.00,Rainwise IP-100,2013-07-13 11:30:00,
2013-07-13 04:36:00,74.8,50.0,27.25,WNW,292,0.0,1.2,41,0.00,,,0.00,Rainwise IP-100,2013-07-13 11:36:00,
2013-07-13 04:41:00,74.3,49.0,27.25,WNW,292,0.0,0.0,41,0.00,,,0.00,Rainwise IP-100,2013-07-13 11:41:00,
2013-07-13 04:46:00,74.1,49.0,27.25,WNW,292,0.0,1.2,41,0.00,,,0.00,Rainwise IP-100,2013-07-13 11:46:00,
2013-07-13 04:51:00,74.3,49.0,27.25,WNW,292,0.0,1.6,41,0.00,,,0.00,Rainwise IP-100,2013-07-13 11:51:00,
2013-07-13 04:56:00,74.8,49.0,27.25,WNW,292,0.0,0.0,40,0.00,,,0.00,Rainwise IP-100,2013-07-13 11:56:00,
2013-07-13 05:01:00,75.0,49.0,27.25,WNW,292,1.2,1.4,40,0.00,,,0.00,Rainwise IP-100,2013-07-13 12:01:00,
2013-07-13 05:06:00,75.0,49.0,27.25,WNW,292,0.0,1.4,40,0.00,,,0.00,Rainwise IP-100,2013-07-13 12:06:00,
2013-07-13 05:11:00,74.8,49.0,27.25,WNW,292,0.0,0.0,40,0.00,,,0.00,Rainwise IP-100,2013-07-13 12:11:00,
2013-07-13 05:16:00,74.3,48.0,27.25,WNW,292,0.0,0.0,40,0.00,,,0.00,Rainwise IP-100,2013-07-13 12:16:00,
2013-07-13 05:21:00,73.7,48.0,27.25,WNW,292,0.0,0.0,41,0.00,,,0.00,Rainwise IP-100,2013-07-13 12:21:00,
2013-07-13 05:26:00,72.9,48.0,27.26,WNW,292,0.0,0.0,42,0.00,,,0.00,Rainwise IP-100,2013-07-13 12:26:00,
2013-07-13 05:31:00,72.1,48.0,27.26,WNW,292,0.0,0.0,43,0.00,,,0.00,Rainwise IP-100,2013-07-13 12:31:00,
2013-07-13 05:36:00,71.6,48.0,27.26,WNW,292,0.0,1.2,44,0.00,,,0.00,Rainwise IP-100,2013-07-13 12:36:00,
2013-07-13 05:41:00,71.8,48.0,27.26,WNW,292,0.0,0.0,44,0.00,,,0.00,Rainwise IP-100,2013-07-13 12:41:00,
2013-07-13 05:46:00,72.4,48.0,27.26,WNW,292,1.2,1.2,43,0.00,,,0.00,Rainwise IP-100,2013-07-13 12:46:00,
2013-07-13 05:52:00,72.6,49.0,27.26,WNW,292,1.4,1.9,43,0.00,,,0.00,Rainwise IP-100,2013-07-13 12:52:00,
2013-07-13 05:57:00,72.8,49.0,27.26,WNW,292,0.0,1.6,43,0.00,,,0.00,Rainwise IP-100,2013-07-13 12:57:00,
2013-07-13 06:02:00,73.2,49.0,27.26,WNW,292,0.0,0.0,42,0.00,,,0.00,Rainwise IP-100,2013-07-13 13:02:00,
2013-07-13 06:07:00,73.1,48.0,27.26,WNW,292,0.0,0.0,42,0.00,,,0.00,Rainwise IP-100,2013-07-13 13:07:00,
2013-07-13 06:12:00,73.1,48.0,27.26,WNW,292,1.2,0.0,42,0.00,,,0.00,Rainwise IP-100,2013-07-13 13:12:00,
2013-07-13 06:17:00,73.3,48.0,27.26,WNW,292,0.0,1.2,41,0.00,,,0.00,Rainwise IP-100,2013-07-13 13:17:00,
2013-07-13 06:22:00,73.8,48.0,27.26,WNW,292,0.0,1.2,41,0.00,,,0.00,Rainwise IP-100,2013-07-13 13:22:00,
2013-07-13 06:27:00,74.2,48.0,27.27,WNW,292,0.0,0.0,40,0.00,,,0.00,Rainwise IP-100,2013-07-13 13:27:00,
2013-07-13 06:32:00,74.6,49.0,27.27,WNW,292,0.0,0.0,40,0.00,,,0.00,Rainwise IP-100,2013-07-13 13:32:00,
2013-07-13 06:37:00,75.0,48.0,27.27,WNW,292,0.0,1.2,39,0.00,,,0.00,Rainwise IP-100,2013-07-13 13:37:00,
2013-07-13 06:42:00,75.9,48.0,27.26,WNW,292,0.0,0.0,38,0.00,,,0.00,Rainwise IP-100,2013-07-13 13:42:00,
2013-07-13 06:47:00,77.2,48.0,27.27,WNW,292,0.0,1.2,36,0.00,,,0.00,Rainwise IP-100,2013-07-13 13:47:00,
2013-07-13 06:52:00,78.0,48.0,27.27,WNW,292,0.0,1.2,35,0.00,,,0.00,Rainwise IP-100,2013-07-13 13:52:00,
2013-07-13 06:58:00,78.8,48.0,27.27,NNW,337,0.0,1.6,34,0.00,,,0.00,Rainwise IP-100,2013-07-13 13:58:00,
2013-07-13 07:03:00,79.6,48.0,27.27,ENE,67,1.4,0.0,33,0.00,,,0.00,Rainwise IP-100,2013-07-13 14:03:00,
2013-07-13 07:08:00,79.8,47.5,27.27,ENE,67,0.0,1.6,32,0.00,,,0.00,Rainwise IP-100,2013-07-13 14:08:00,
2013-07-13 07:13:00,79.9,47.5,27.27,ENE,67,0.0,1.2,32,0.00,,,0.00,Rainwise IP-100,2013-07-13 14:13:00,
2013-07-13 07:18:00,80.5,48.0,27.27,ENE,67,0.0,0.0,32,0.00,,,0.00,Rainwise IP-100,2013-07-13 14:18:00,
2013-07-13 07:23:00,81.3,47.5,27.27,ENE,67,0.0,0.0,31,0.00,,,0.00,Rainwise IP-100,2013-07-13 14:23:00,
2013-07-13 07:28:00,82.2,47.5,27.27,SSE,157,0.0,1.2,30,0.00,,,0.00,Rainwise IP-100,2013-07-13 14:28:00,
2013-07-13 07:33:00,82.9,48.0,27.27,SSE,157,2.1,2.8,30,0.00,,,0.00,Rainwise IP-100,2013-07-13 14:33:00,
2013-07-13 07:38:00,83.4,48.0,27.28,SSW,202,2.8,3.3,29,0.00,,,0.00,Rainwise IP-100,2013-07-13 14:38:00,
2013-07-13 07:43:00,83.8,48.0,27.28,SSW,202,2.1,3.0,29,0.00,,,0.00,Rainwise IP-100,2013-07-13 14:43:00,
2013-07-13 07:48:00,84.3,47.5,27.28,SSW,202,0.0,3.0,28,0.00,,,0.00,Rainwise IP-100,2013-07-13 14:48:00,
2013-07-13 07:53:00,84.5,48.0,27.28,SSW,202,0.0,1.4,28,0.00,,,0.00,Rainwise IP-100,2013-07-13 14:53:00,
2013-07-13 07:58:00,85.1,47.5,27.28,SSW,202,1.4,2.6,27,0.00,,,0.00,Rainwise IP-100,2013-07-13 14:58:00,
2013-07-13 08:03:00,86.1,47.5,27.28,SSW,202,0.0,1.9,26,0.00,,,0.00,Rainwise IP-100,2013-07-13 15:03:00,
2013-07-13 08:08:00,87.1,48.0,27.28,SSW,202,0.0,0.0,26,0.00,,,0.00,Rainwise IP-100,2013-07-13 15:08:00,
2013-07-13 08:14:00,87.2,48.0,27.28,NE,45,1.9,6.3,26,0.00,,,0.00,Rainwise IP-100,2013-07-13 15:14:00,
2013-07-13 08:19:00,86.5,47.5,27.28,ENE,67,1.9,4.2,26,0.00,,,0.00,Rainwise IP-100,2013-07-13 15:19:00,
2013-07-13 08:24:00,86.8,47.5,27.29,SSE,157,2.8,6.1,26,0.00,,,0.00,Rainwise IP-100,2013-07-13 15:24:00,
2013-07-13 08:29:00,87.9,49.0,27.28,SSE,157,2.3,5.8,26,0.00,,,0.00,Rainwise IP-100,2013-07-13 15:29:00,
2013-07-13 08:34:00,88.0,49.0,27.29,SSE,157,0.0,6.1,26,0.00,,,0.00,Rainwise IP-100,2013-07-13 15:34:00,
2013-07-13 08:39:00,88.6,49.0,27.28,SSE,157,5.6,7.2,26,0.00,,,0.00,Rainwise IP-100,2013-07-13 15:39:00,
2013-07-13 08:44:00,89.2,49.0,27.28,SSW,202,7.5,7.7,25,0.00,,,0.00,Rainwise IP-100,2013-07-13 15:44:00,
2013-07-13 08:49:00,88.8,47.5,27.29,SSW,202,4.7,7.9,24,0.00,,,0.00,Rainwise IP-100,2013-07-13 15:49:00,
2013-07-13 08:54:00,88.7,47.0,27.28,SSW,202,6.1,7.2,23,0.00,,,0.00,Rainwise IP-100,2013-07-13 15:54:00,
2013-07-13 08:59:00,88.9,47.0,27.29,SSW,202,5.6,8.6,23,0.00,,,0.00,Rainwise IP-100,2013-07-13 15:59:00,
2013-07-13 09:04:00,88.9,45.0,27.28,SSW,202,6.3,9.1,22,0.00,,,0.00,Rainwise IP-100,2013-07-13 16:04:00,
2013-07-13 09:09:00,88.9,45.0,27.29,SSW,202,4.9,9.6,22,0.00,,,0.00,Rainwise IP-100,2013-07-13 16:09:00,
2013-07-13 09:14:00,89.1,45.0,27.28,SSW,202,10.3,10.3,22,0.00,,,0.00,Rainwise IP-100,2013-07-13 16:14:00,
2013-07-13 09:19:00,89.4,44.0,27.28,SSW,202,5.4,10.3,21,0.00,,,0.00,Rainwise IP-100,2013-07-13 16:19:00,
2013-07-13 09:24:00,89.6,43.0,27.29,SSE,157,7.7,8.6,20,0.00,,,0.00,Rainwise IP-100,2013-07-13 16:24:00,
2013-07-13 09:30:00,89.7,46.0,27.29,SSW,202,5.4,11.0,22,0.00,,,0.00,Rainwise IP-100,2013-07-13 16:30:00,
2013-07-13 09:35:00,89.8,48.0,27.29,SSW,202,6.5,10.0,24,0.00,,,0.00,Rainwise IP-100,2013-07-13 16:35:00,
2013-07-13 09:40:00,89.9,50.0,27.29,SSE,157,7.0,11.0,25,0.00,,,0.00,Rainwise IP-100,2013-07-13 16:40:00,
2013-07-13 09:45:00,89.8,50.5,27.29,South,180,9.1,10.7,26,0.00,,,0.00,Rainwise IP-100,2013-07-13 16:45:00,
2013-07-13 09:50:00,89.8,49.0,27.29,SSE,157,7.2,10.5,25,0.00,,,0.00,Rainwise IP-100,2013-07-13 16:50:00,
2013-07-13 09:55:00,90.0,50.0,27.29,SSE,157,7.2,11.2,25,0.00,,,0.00,Rainwise IP-100,2013-07-13 16:55:00,
2013-07-13 10:00:00,90.2,50.5,27.29,SSE,157,5.6,11.0,26,0.00,,,0.00,Rainwise IP-100,2013-07-13 17:00:00,
2013-07-13 10:05:00,90.5,50.0,27.29,SSW,202,8.9,11.2,25,0.00,,,0.00,Rainwise IP-100,2013-07-13 17:05:00,
2013-07-13 10:10:00,90.7,50.5,27.29,SSW,202,7.9,12.4,25,0.00,,,0.00,Rainwise IP-100,2013-07-13 17:10:00,
2013-07-13 10:15:00,90.8,49.0,27.29,South,180,5.8,8.9,24,0.00,,,0.00,Rainwise IP-100,2013-07-13 17:15:00,
2013-07-13 10:20:00,91.3,50.0,27.29,SSW,202,7.7,9.6,24,0.00,,,0.00,Rainwise IP-100,2013-07-13 17:20:00,
2013-07-13 10:25:00,91.4,50.0,27.29,SW,225,7.2,11.0,24,0.00,,,0.00,Rainwise IP-100,2013-07-13 17:25:00,
2013-07-13 10:30:00,91.3,50.0,27.29,SSW,202,6.5,10.7,24,0.00,,,0.00,Rainwise IP-100,2013-07-13 17:30:00,
2013-07-13 10:35:00,91.1,49.0,27.29,SSE,157,7.2,10.3,24,0.00,,,0.00,Rainwise IP-100,2013-07-13 17:35:00,
2013-07-13 10:40:00,91.2,48.0,27.29,SSW,202,6.3,12.4,23,0.00,,,0.00,Rainwise IP-100,2013-07-13 17:40:00,
2013-07-13 10:46:00,91.3,48.0,27.29,SSE,157,9.1,11.0,23,0.00,,,0.00,Rainwise IP-100,2013-07-13 17:46:00,
2013-07-13 10:51:00,91.1,49.0,27.29,SSE,157,9.1,13.5,24,0.00,,,0.00,Rainwise IP-100,2013-07-13 17:51:00,
2013-07-13 10:56:00,91.1,50.5,27.29,SSW,202,8.2,12.4,25,0.00,,,0.00,Rainwise IP-100,2013-07-13 17:56:00,
2013-07-13 11:01:00,91.0,50.5,27.29,SSW,202,8.4,10.7,25,0.00,,,0.00,Rainwise IP-100,2013-07-13 18:01:00,
2013-07-13 11:06:00,91.4,50.5,27.29,SSE,157,8.4,13.3,25,0.00,,,0.00,Rainwise IP-100,2013-07-13 18:06:00,
2013-07-13 11:11:00,91.5,48.0,27.29,SSW,202,5.4,11.0,23,0.00,,,0.00,Rainwise IP-100,2013-07-13 18:11:00,
2013-07-13 11:16:00,91.5,48.0,27.28,SSE,157,4.7,11.2,23,0.00,,,0.00,Rainwise IP-100,2013-07-13 18:16:00,
2013-07-13 11:21:00,91.8,50.0,27.29,SSE,157,10.0,13.3,24,0.00,,,0.00,Rainwise IP-100,2013-07-13 18:21:00,
2013-07-13 11:26:00,92.0,50.0,27.28,South,180,9.8,11.4,24,0.00,,,0.00,Rainwise IP-100,2013-07-13 18:26:00,
2013-07-13 11:31:00,92.1,51.0,27.29,SSW,202,8.9,12.6,25,0.00,,,0.00,Rainwise IP-100,2013-07-13 18:31:00,
2013-07-13 11:36:00,92.2,53.0,27.28,SSE,157,9.8,14.7,26,0.00,,,0.00,Rainwise IP-100,2013-07-13 18:36:00,
2013-07-13 11:41:00,92.3,51.0,27.28,SSW,202,7.5,13.8,25,0.00,,,0.00,Rainwise IP-100,2013-07-13 18:41:00,
2013-07-13 11:46:00,92.2,51.0,27.28,SSE,157,8.6,14.2,25,0.00,,,0.00,Rainwise IP-100,2013-07-13 18:46:00,
2013-07-13 11:51:00,92.3,51.0,27.28,SSW,202,9.6,12.1,25,0.00,,,0.00,Rainwise IP-100,2013-07-13 18:51:00,
2013-07-13 11:56:00,92.3,51.0,27.28,SSE,157,10.0,14.2,25,0.00,,,0.00,Rainwise IP-100,2013-07-13 18:56:00,
2013-07-13 12:02:00,92.5,50.5,27.29,SSE,157,7.7,17.3,24,0.00,,,0.00,Rainwise IP-100,2013-07-13 19:02:00,
2013-07-13 12:07:00,92.9,50.5,27.28,SSW,202,8.2,13.8,24,0.00,,,0.00,Rainwise IP-100,2013-07-13 19:07:00,
2013-07-13 12:12:00,93.0,52.0,27.28,SSE,157,3.7,9.1,25,0.00,,,0.00,Rainwise IP-100,2013-07-13 19:12:00,
2013-07-13 12:17:00,93.0,50.5,27.28,SSE,157,5.4,15.4,24,0.00,,,0.00,Rainwise IP-100,2013-07-13 19:17:00,
2013-07-13 12:22:00,93.1,51.0,27.28,SSW,202,14.7,14.7,24,0.00,,,0.00,Rainwise IP-100,2013-07-13 19:22:00,
2013-07-13 12:27:00,93.2,51.0,27.28,SSW,202,7.7,16.6,24,0.00,,,0.00,Rainwise IP-100,2013-07-13 19:27:00,
2013-07-13 12:32:00,93.3,51.0,27.28,SSE,157,14.5,14.5,24,0.00,,,0.00,Rainwise IP-100,2013-07-13 19:32:00,
2013-07-13 12:37:00,93.3,51.0,27.28,SSE,157,8.4,16.8,24,0.00,,,0.00,Rainwise IP-100,2013-07-13 19:37:00,
2013-07-13 12:42:00,93.2,51.0,27.28,SSE,157,7.5,11.2,24,0.00,,,0.00,Rainwise IP-100,2013-07-13 19:42:00,
2013-07-13 12:47:00,93.6,51.0,27.27,SSW,202,4.9,18.0,24,0.00,,,0.00,Rainwise IP-100,2013-07-13 19:47:00,
2013-07-13 12:52:00,93.8,51.0,27.27,SSW,202,17.3,17.3,24,0.00,,,0.00,Rainwise IP-100,2013-07-13 19:52:00,
2013-07-13 12:57:00,93.7,51.0,27.27,SSE,157,6.8,18.4,24,0.00,,,0.00,Rainwise IP-100,2013-07-13 19:57:00,
2013-07-13 13:02:00,93.8,51.0,27.27,SSW,202,7.2,15.4,24,0.00,,,0.00,Rainwise IP-100,2013-07-13 20:02:00,
2013-07-13 13:07:00,94.0,52.0,27.27,South,180,14.0,18.4,24,0.00,,,0.00,Rainwise IP-100,2013-07-13 20:07:00,
2013-07-13 13:12:00,93.9,52.0,27.26,SSE,157,6.1,18.2,24,0.00,,,0.00,Rainwise IP-100,2013-07-13 20:12:00,
2013-07-13 13:18:00,93.7,53.0,27.26,South,180,6.8,13.5,25,0.00,,,0.00,Rainwise IP-100,2013-07-13 20:18:00,
2013-07-13 13:23:00,93.7,53.0,27.26,SSW,202,11.4,18.7,25,0.00,,,0.00,Rainwise IP-100,2013-07-13 20:23:00,
2013-07-13 13:28:00,93.7,53.0,27.26,South,180,10.5,17.0,25,0.00,,,0.00,Rainwise IP-100,2013-07-13 20:28:00,
2013-07-13 13:33:00,94.0,54.0,27.26,South,180,9.1,14.2,26,0.00,,,0.00,Rainwise IP-100,2013-07-13 20:33:00,
2013-07-13 13:38:00,94.1,54.0,27.26,SSW,202,14.7,15.2,26,0.00,,,0.00,Rainwise IP-100,2013-07-13 20:38:00,
2013-07-13 13:43:00,94.3,53.5,27.26,SSW,202,3.5,16.6,25,0.00,,,0.00,Rainwise IP-100,2013-07-13 20:43:00,
2013-07-13 13:48:00,94.0,53.0,27.26,SSE,157,2.8,8.6,25,0.00,,,0.00,Rainwise IP-100,2013-07-13 20:48:00,
2013-07-13 13:53:00,93.9,53.0,27.26,SSE,157,9.6,15.2,25,0.00,,,0.00,Rainwise IP-100,2013-07-13 20:53:00,
2013-07-13 13:58:00,94.7,53.5,27.26,SSE,157,7.7,12.8,25,0.00,,,0.00,Rainwise IP-100,2013-07-13 20:58:00,
2013-07-13 14:03:00,95.3,54.0,27.25,SSE,157,11.2,15.2,25,0.00,,,0.00,Rainwise IP-100,2013-07-13 21:03:00,
2013-07-13 14:08:00,95.2,53.0,27.25,SSW,202,7.5,17.3,24,0.00,,,0.00,Rainwise IP-100,2013-07-13 21:08:00,
2013-07-13 14:13:00,94.8,53.0,27.25,SE,135,3.7,13.3,24,0.00,,,0.00,Rainwise IP-100,2013-07-13 21:13:00,
2013-07-13 14:19:00,95.0,53.0,27.25,SSW,202,7.2,14.9,24,0.00,,,0.00,Rainwise IP-100,2013-07-13 21:19:00,
2013-07-13 14:24:00,95.1,53.0,27.25,SSE,157,11.9,16.8,24,0.00,,,0.00,Rainwise IP-100,2013-07-13 21:24:00,
2013-07-13 14:29:00,95.2,53.0,27.25,SE,135,6.5,15.9,24,0.00,,,0.00,Rainwise IP-100,2013-07-13 21:29:00,
2013-07-13 14:34:00,95.0,53.0,27.24,SSW,202,2.6,9.8,24,0.00,,,0.00,Rainwise IP-100,2013-07-13 21:34:00,
2013-07-13 14:39:00,95.2,53.0,27.25,SSE,157,8.2,14.2,24,0.00,,,0.00,Rainwise IP-100,2013-07-13 21:39:00,
2013-07-13 14:44:00,96.2,53.5,27.25,SSE,157,7.7,14.9,24,0.00,,,0.00,Rainwise IP-100,2013-07-13 21:44:00,
2013-07-13 14:49:00,96.2,53.0,27.24,SSE,157,4.9,10.7,23,0.00,,,0.00,Rainwise IP-100,2013-07-13 21:49:00,
2013-07-13 14:54:00,96.2,53.0,27.24,SSE,157,7.2,14.0,23,0.00,,,0.00,Rainwise IP-100,2013-07-13 21:54:00,
2013-07-13 14:59:00,96.6,53.0,27.24,SSW,202,6.5,17.5,23,0.00,,,0.00,Rainwise IP-100,2013-07-13 21:59:00,
2013-07-13 15:04:00,96.2,53.0,27.24,SSW,202,0.0,13.5,23,0.00,,,0.00,Rainwise IP-100,2013-07-13 22:04:00,
2013-07-13 15:09:00,95.9,52.0,27.24,South,180,6.5,14.0,23,0.00,,,0.00,Rainwise IP-100,2013-07-13 22:09:00,
2013-07-13 15:14:00,96.3,53.0,27.23,SSE,157,2.6,9.3,23,0.00,,,0.00,Rainwise IP-100,2013-07-13 22:14:00,
2013-07-13 15:19:00,96.7,52.0,27.23,South,180,3.7,12.4,22,0.00,,,0.00,Rainwise IP-100,2013-07-13 22:19:00,
2013-07-13 15:24:00,96.7,52.0,27.23,ESE,112,2.8,10.7,22,0.00,,,0.00,Rainwise IP-100,2013-07-13 22:24:00,
2013-07-13 15:30:00,96.1,51.0,27.23,South,180,8.6,14.5,22,0.00,,,0.00,Rainwise IP-100,2013-07-13 22:30:00,
2013-07-13 15:35:00,96.8,52.0,27.22,SSW,202,15.2,15.2,22,0.00,,,0.00,Rainwise IP-100,2013-07-13 22:35:00,
2013-07-13 15:40:00,97.2,52.0,27.23,SSE,157,8.2,15.6,22,0.00,,,0.00,Rainwise IP-100,2013-07-13 22:40:00,
2013-07-13 15:45:00,95.9,51.0,27.22,ENE,67,5.4,8.2,22,0.00,,,0.00,Rainwise IP-100,2013-07-13 22:45:00,
2013-07-13 15:50:00,95.3,50.5,27.21,SSE,157,7.5,7.5,22,0.00,,,0.00,Rainwise IP-100,2013-07-13 22:50:00,
2013-07-13 15:55:00,96.1,51.0,27.21,SSE,157,2.6,9.6,22,0.00,,,0.00,Rainwise IP-100,2013-07-13 22:55:00,
2013-07-13 16:00:00,97.1,50.5,27.21,SSW,202,8.4,15.9,21,0.00,,,0.00,Rainwise IP-100,2013-07-13 23:00:00,
2013-07-13 16:05:00,98.0,50.0,27.21,South,180,8.6,18.7,20,0.00,,,0.00,Rainwise IP-100,2013-07-13 23:05:00,
2013-07-13 16:10:00,98.1,50.5,27.21,SSE,157,6.8,15.2,20,0.00,,,0.00,Rainwise IP-100,2013-07-13 23:10:00,
2013-07-13 16:15:00,97.6,50.0,27.20,WSW,247,0.0,11.7,20,0.00,,,0.00,Rainwise IP-100,2013-07-13 23:15:00,
2013-07-13 16:20:00,97.2,48.0,27.20,SW,225,3.5,5.8,19,0.00,,,0.00,Rainwise IP-100,2013-07-13 23:20:00,
2013-07-13 16:25:00,97.5,48.0,27.20,SSW,202,11.0,18.0,19,0.00,,,0.00,Rainwise IP-100,2013-07-13 23:25:00,
2013-07-13 16:30:00,97.6,47.0,27.20,SSW,202,11.7,14.7,18,0.00,,,0.00,Rainwise IP-100,2013-07-13 23:30:00,
2013-07-13 16:35:00,97.6,47.0,27.20,SSW,202,10.5,14.5,18,0.00,,,0.00,Rainwise IP-100,2013-07-13 23:35:00,
2013-07-13 16:41:00,97.4,47.0,27.20,SSE,157,8.4,14.7,18,0.00,,,0.00,Rainwise IP-100,2013-07-13 23:41:00,
2013-07-13 16:46:00,97.4,47.0,27.20,SSW,202,7.0,16.3,18,0.00,,,0.00,Rainwise IP-100,2013-07-13 23:46:00,
2013-07-13 16:51:00,97.4,47.0,27.20,SW,225,9.3,18.9,18,0.00,,,0.00,Rainwise IP-100,2013-07-13 23:51:00,
2013-07-13 16:56:00,97.3,47.0,27.19,WSW,247,5.8,12.8,18,0.00,,,0.00,Rainwise IP-100,2013-07-13 23:56:00,
2013-07-13 17:01:00,97.4,48.0,27.20,SW,225,9.3,15.4,19,0.00,,,0.00,Rainwise IP-100,2013-07-14 00:01:00,
2013-07-13 17:06:00,96.8,47.5,27.20,SSW,202,8.6,15.2,19,0.00,,,0.00,Rainwise IP-100,2013-07-14 00:06:00,
2013-07-13 17:11:00,96.4,47.5,27.19,WSW,247,8.9,15.9,19,0.00,,,0.00,Rainwise IP-100,2013-07-14 00:11:00,
2013-07-13 17:16:00,96.8,47.5,27.19,SSW,202,12.1,14.9,19,0.00,,,0.00,Rainwise IP-100,2013-07-14 00:16:00,
2013-07-13 17:21:00,96.7,47.5,27.19,SSW,202,7.9,15.6,19,0.00,,,0.00,Rainwise IP-100,2013-07-14 00:21:00,
2013-07-13 17:26:00,96.4,47.5,27.19,SSW,202,11.2,13.3,19,0.00,,,0.00,Rainwise IP-100,2013-07-14 00:26:00,
2013-07-13 17:31:00,96.2,47.5,27.19,SSW,202,7.9,14.7,19,0.00,,,0.00,Rainwise IP-100,2013-07-14 00:31:00,
2013-07-13 17:36:00,96.0,47.0,27.19,SSW,202,7.5,13.5,19,0.00,,,0.00,Rainwise IP-100,2013-07-14 00:36:00,
2013-07-13 17:41:00,96.3,47.5,27.19,SSW,202,3.7,11.0,19,0.00,,,0.00,Rainwise IP-100,2013-07-14 00:41:00,
2013-07-13 17:46:00,96.5,47.5,27.19,WSW,247,4.9,14.5,19,0.00,,,0.00,Rainwise IP-100,2013-07-14 00:46:00,
2013-07-13 17:51:00,96.4,47.5,27.18,SSW,202,11.2,12.8,19,0.00,,,0.00,Rainwise IP-100,2013-07-14 00:51:00,
2013-07-13 17:57:00,96.0,47.0,27.19,SSW,202,7.7,13.3,19,0.00,,,0.00,Rainwise IP-100,2013-07-14 00:57:00,
2013-07-13 18:02:00,95.8,47.0,27.19,SSW,202,7.2,13.5,19,0.00,,,0.00,Rainwise IP-100,2013-07-14 01:02:00,
2013-07-13 18:07:00,95.7,47.0,27.18,SSW,202,7.2,12.4,19,0.00,,,0.00,Rainwise IP-100,2013-07-14 01:07:00,
2013-07-13 18:12:00,95.6,48.0,27.19,SSW,202,7.9,14.7,20,0.00,,,0.00,Rainwise IP-100,2013-07-14 01:12:00,
2013-07-13 18:17:00,95.4,48.0,27.19,SSW,202,10.0,11.2,20,0.00,,,0.00,Rainwise IP-100,2013-07-14 01:17:00,
2013-07-13 18:22:00,95.3,48.0,27.19,SW,225,9.1,11.4,20,0.00,,,0.00,Rainwise IP-100,2013-07-14 01:22:00,
2013-07-13 18:27:00,95.3,48.0,27.19,SW,225,9.6,11.7,20,0.00,,,0.00,Rainwise IP-100,2013-07-14 01:27:00,
2013-07-13 18:32:00,95.0,47.5,27.19,SW,225,9.3,12.6,20,0.00,,,0.00,Rainwise IP-100,2013-07-14 01:32:00,
2013-07-13 18:37:00,94.8,47.5,27.19,WSW,247,7.2,13.1,20,0.00,,,0.00,Rainwise IP-100,2013-07-14 01:37:00,
2013-07-13 18:42:00,94.4,47.5,27.19,SSW,202,5.1,11.0,20,0.00,,,0.00,Rainwise IP-100,2013-07-14 01:42:00,
2013-07-13 18:47:00,94.2,48.0,27.19,SW,225,5.6,11.9,21,0.00,,,0.00,Rainwise IP-100,2013-07-14 01:47:00,
2013-07-13 18:52:00,93.9,48.0,27.19,SW,225,6.3,10.3,21,0.00,,,0.00,Rainwise IP-100,2013-07-14 01:52:00,
2013-07-13 18:57:00,93.6,47.5,27.19,SW,225,7.9,11.2,21,0.00,,,0.00,Rainwise IP-100,2013-07-14 01:57:00,
2013-07-13 19:02:00,93.3,47.5,27.19,WNW,292,4.9,10.0,21,0.00,,,0.00,Rainwise IP-100,2013-07-14 02:02:00,
2013-07-13 19:07:00,93.1,47.5,27.19,SW,225,4.0,7.9,21,0.00,,,0.00,Rainwise IP-100,2013-07-14 02:07:00,
2013-07-13 19:13:00,92.6,48.0,27.20,WSW,247,8.2,11.0,22,0.00,,,0.00,Rainwise IP-100,2013-07-14 02:13:00,
2013-07-13 19:18:00,92.0,47.5,27.20,WSW,247,5.8,8.6,22,0.00,,,0.00,Rainwise IP-100,2013-07-14 02:18:00,
2013-07-13 19:23:00,91.5,48.0,27.20,WNW,292,7.5,12.8,23,0.00,,,0.00,Rainwise IP-100,2013-07-14 02:23:00,
2013-07-13 19:28:00,91.0,48.0,27.20,WSW,247,6.1,8.9,23,0.00,,,0.00,Rainwise IP-100,2013-07-14 02:28:00,
2013-07-13 19:33:00,90.6,49.0,27.20,WSW,247,7.9,9.6,24,0.00,,,0.00,Rainwise IP-100,2013-07-14 02:33:00,
2013-07-13 19:38:00,90.3,49.0,27.20,WSW,247,3.7,9.3,24,0.00,,,0.00,Rainwise IP-100,2013-07-14 02:38:00,
2013-07-13 19:43:00,90.1,48.0,27.20,West,270,5.6,10.3,24,0.00,,,0.00,Rainwise IP-100,2013-07-14 02:43:00,
2013-07-13 19:48:00,89.8,48.0,27.20,WSW,247,2.8,10.7,24,0.00,,,0.00,Rainwise IP-100,2013-07-14 02:48:00,
2013-07-13 19:53:00,89.7,48.0,27.20,SW,225,4.2,9.6,24,0.00,,,0.00,Rainwise IP-100,2013-07-14 02:53:00,
2013-07-13 19:58:00,89.4,48.0,27.21,SW,225,6.8,8.4,24,0.00,,,0.00,Rainwise IP-100,2013-07-14 02:58:00,
2013-07-13 20:03:00,89.1,49.0,27.20,WSW,247,2.8,9.1,25,0.00,,,0.00,Rainwise IP-100,2013-07-14 03:03:00,
2013-07-13 20:08:00,88.9,49.0,27.21,WSW,247,5.6,6.8,25,0.00,,,0.00,Rainwise IP-100,2013-07-14 03:08:00,
2013-07-13 20:13:00,88.7,48.0,27.21,SW,225,4.0,6.3,25,0.00,,,0.00,Rainwise IP-100,2013-07-14 03:13:00,
2013-07-13 20:18:00,88.5,48.0,27.21,WSW,247,5.4,7.9,25,0.00,,,0.00,Rainwise IP-100,2013-07-14 03:18:00,
2013-07-13 20:23:00,88.4,48.0,27.21,West,270,4.2,7.2,25,0.00,,,0.00,Rainwise IP-100,2013-07-14 03:23:00,
2013-07-13 20:29:00,88.3,49.0,27.21,WNW,292,5.1,10.7,26,0.00,,,0.00,Rainwise IP-100,2013-07-14 03:29:00,
2013-07-13 20:34:00,88.2,49.0,27.21,West,270,4.2,8.4,26,0.00,,,0.00,Rainwise IP-100,2013-07-14 03:34:00,
2013-07-13 20:39:00,88.1,49.0,27.21,WSW,247,5.4,6.8,26,0.00,,,0.00,Rainwise IP-100,2013-07-14 03:39:00,
2013-07-13 20:44:00,87.8,49.0,27.21,WSW,247,4.9,7.2,26,0.00,,,0.00,Rainwise IP-100,2013-07-14 03:44:00,
2013-07-13 20:49:00,87.4,48.0,27.21,SW,225,3.3,6.8,26,0.00,,,0.00,Rainwise IP-100,2013-07-14 03:49:00,
2013-07-13 20:54:00,87.2,48.0,27.22,WNW,292,1.6,4.0,26,0.00,,,0.00,Rainwise IP-100,2013-07-14 03:54:00,
2013-07-13 20:59:00,86.9,49.0,27.22,WSW,247,2.3,4.0,27,0.00,,,0.00,Rainwise IP-100,2013-07-14 03:59:00,
2013-07-13 21:01:00,86.8,49.0,27.22,West,270,2.3,4.2,27,0.00,,,0.00,Rainwise IP-100,2013-07-14 04:01:00,
2013-07-13 21:06:00,86.7,49.0,27.21,NW,315,1.9,5.8,27,0.00,,,0.00,Rainwise IP-100,2013-07-14 04:06:00,
2013-07-13 21:11:00,86.5,48.0,27.22,NW,315,0.0,2.1,27,0.00,,,0.00,Rainwise IP-100,2013-07-14 04:11:00,
2013-07-13 21:16:00,86.1,48.0,27.23,NW,315,0.0,0.0,27,0.00,,,0.00,Rainwise IP-100,2013-07-14 04:16:00,
2013-07-13 21:21:00,85.7,47.5,27.23,ENE,67,1.9,2.1,27,0.00,,,0.00,Rainwise IP-100,2013-07-14 04:21:00,
2013-07-13 21:26:00,85.2,48.0,27.23,ENE,67,0.0,2.1,28,0.00,,,0.00,Rainwise IP-100,2013-07-14 04:26:00,
2013-07-13 21:31:00,84.6,48.0,27.24,NE,45,1.6,1.6,28,0.00,,,0.00,Rainwise IP-100,2013-07-14 04:31:00,
2013-07-13 21:36:00,84.1,48.0,27.23,NNE,22,2.6,4.7,29,0.00,,,0.00,Rainwise IP-100,2013-07-14 04:36:00,
2013-07-13 21:41:00,83.7,48.0,27.23,NNW,337,3.5,4.2,29,0.00,,,0.00,Rainwise IP-100,2013-07-14 04:41:00,
2013-07-13 21:47:00,83.5,49.0,27.24,North,360,3.5,5.1,30,0.00,,,0.00,Rainwise IP-100,2013-07-14 04:47:00,
2013-07-13 21:52:00,83.4,48.0,27.24,North,360,3.7,4.7,29,0.00,,,0.00,Rainwise IP-100,2013-07-14 04:52:00,
2013-07-13 21:57:00,83.5,48.0,27.24,NNE,22,3.3,4.9,29,0.00,,,0.00,Rainwise IP-100,2013-07-14 04:57:00,
2013-07-13 22:02:00,83.7,48.0,27.24,NNE,22,2.1,3.7,29,0.00,,,0.00,Rainwise IP-100,2013-07-14 05:02:00,
2013-07-13 22:07:00,83.7,48.0,27.24,NNE,22,0.0,2.8,29,0.00,,,0.00,Rainwise IP-100,2013-07-14 05:07:00,
2013-07-13 22:12:00,83.5,48.0,27.24,NNE,22,0.0,1.9,29,0.00,,,0.00,Rainwise IP-100,2013-07-14 05:12:00,
2013-07-13 22:14:00,83.4,48.0,27.24,NNE,22,0.0,1.2,29,0.00,,,0.00,Rainwise IP-100,2013-07-14 05:14:00,
2013-07-13 22:19:00,83.0,47.5,27.25,NNE,22,0.0,0.0,29,0.00,,,0.00,Rainwise IP-100,2013-07-14 05:19:00,
2013-07-13 22:24:00,82.7,48.0,27.24,WSW,247,0.0,0.0,30,0.00,,,0.00,Rainwise IP-100,2013-07-14 05:24:00,
2013-07-13 22:29:00,82.5,48.0,27.24,WSW,247,0.0,2.6,30,0.00,,,0.00,Rainwise IP-100,2013-07-14 05:29:00,
2013-07-13 22:34:00,82.6,48.0,27.24,ESE,112,0.0,1.4,30,0.00,,,0.00,Rainwise IP-100,2013-07-14 05:34:00,
2013-07-13 22:39:00,82.2,47.5,27.25,NNE,22,3.7,5.6,30,0.00,,,0.00,Rainwise IP-100,2013-07-14 05:39:00,
2013-07-13 22:45:00,81.5,47.5,27.25,NE,45,3.3,4.7,30,0.00,,,0.00,Rainwise IP-100,2013-07-14 05:45:00,
2013-07-13 22:50:00,81.4,47.5,27.25,NNE,22,3.3,4.0,31,0.00,,,0.00,Rainwise IP-100,2013-07-14 05:50:00,
2013-07-13 22:55:00,81.5,48.0,27.25,NNE,22,4.4,6.1,31,0.00,,,0.00,Rainwise IP-100,2013-07-14 05:55:00,
2013-07-13 23:00:00,82.0,48.0,27.25,NNE,22,3.7,5.8,31,0.00,,,0.00,Rainwise IP-100,2013-07-14 06:00:00,
2013-07-13 23:05:00,82.5,48.0,27.25,ESE,112,2.8,4.9,30,0.00,,,0.00,Rainwise IP-100,2013-07-14 06:05:00,
2013-07-13 23:10:00,82.4,48.0,27.25,ENE,67,2.6,2.8,30,0.00,,,0.00,Rainwise IP-100,2013-07-14 06:10:00,
2013-07-13 23:15:00,82.0,48.0,27.25,NE,45,4.2,4.2,31,0.00,,,0.00,Rainwise IP-100,2013-07-14 06:15:00,
2013-07-13 23:20:00,82.0,48.0,27.25,NNE,22,4.7,6.1,31,0.00,,,0.00,Rainwise IP-100,2013-07-14 06:20:00,
2013-07-13 23:25:00,82.3,48.0,27.25,NNE,22,4.4,5.1,31,0.00,,,0.00,Rainwise IP-100,2013-07-14 06:25:00,
2013-07-13 23:30:00,82.4,48.0,27.25,SSE,157,3.7,4.9,30,0.00,,,0.00,Rainwise IP-100,2013-07-14 06:30:00,
2013-07-13 23:35:00,81.9,47.5,27.25,SW,225,4.0,5.6,30,0.00,,,0.00,Rainwise IP-100,2013-07-14 06:35:00,
2013-07-13 23:40:00,81.6,47.5,27.25,WSW,247,3.7,5.1,30,0.00,,,0.00,Rainwise IP-100,2013-07-14 06:40:00,
2013-07-13 23:45:00,82.1,47.5,27.25,WSW,247,3.7,4.9,30,0.00,,,0.00,Rainwise IP-100,2013-07-14 06:45:00,
2013-07-13 23:51:00,82.6,48.0,27.25,WSW,247,1.6,4.4,30,0.00,,,0.00,Rainwise IP-100,2013-07-14 06:51:00,
2013-07-13 23:54:00,82.5,48.0,27.25,SSW,202,3.0,4.0,30,0.00,,,0.00,Rainwise IP-100,2013-07-14 06:54:00,
2013-07-13 23:59:00,82.1,47.5,27.25,WSW,247,2.6,3.5,30,0.00,,,0.00,Rainwise IP-100,2013-07-14 06:59:00,